EA3CTN-13 Weather Reports


time (UTC)temp
C
wind
direction
speed
KPH
gust
KPH
rain 1hr
cm
rain 24hr
cm
rain mn
cm
humidity
%
barometer
mb
20260506204521 20 0.0 0.0 0.00 0.00 0.00 50 1013.9
20260506203721 20 0.0 0.0 0.00 0.00 0.00 49 1013.7
20260506202921 20 0.0 0.0 0.00 0.00 0.00 48 1013.7
20260506202121 21 0.0 0.0 0.00 0.00 0.00 47 1013.6
20260506201321 21 0.0 0.0 0.00 0.00 0.00 46 1013.3
20260506200521 20 0.0 0.0 0.00 0.00 0.00 46 1013.2
20260506195721 21 0.0 0.0 0.00 0.00 0.00 46 1013.2
20260506194921 21 0.0 0.0 0.00 0.00 0.00 45 1013.0
20260506194121 21 0.0 0.0 0.00 0.00 0.00 43 1012.9
20260506193321 21 0.0 0.0 0.00 0.00 0.00 43 1012.7
20260506192521 21 0.0 0.0 0.00 0.00 0.00 43 1012.6
20260506191721 21 0.0 0.0 0.00 0.00 0.00 42 1012.5
20260506190920 21 0.0 0.0 0.00 0.00 0.00 42 1012.5
20260506190121 21 0.0 0.0 0.00 0.00 0.00 42 1012.3
20260506185321 21 0.0 0.0 0.00 0.00 0.00 42 1012.3
20260506184521 22 0.0 0.0 0.00 0.00 0.00 41 1012.2
20260506183721 22 0.0 0.0 0.00 0.00 0.00 42 1012.1
20260506182921 22 0.0 0.0 0.00 0.00 0.00 42 1011.9
20260506182121 22 0.0 0.0 0.00 0.00 0.00 41 1011.9
20260506181321 22 0.0 0.0 0.00 0.00 0.00 39 1011.8
20260506180521 22 0.0 0.0 0.00 0.00 0.00 38 1011.6
20260506175720 22 0.0 0.0 0.00 0.00 0.00 37 1011.7
20260506174922 23 0.0 0.0 0.00 0.00 0.00 37 1011.5
20260506174120 23 0.0 0.0 0.00 0.00 0.00 36 1011.4
20260506173321 23 0.0 0.0 0.00 0.00 0.00 37 1011.4
20260506172521 23 0.0 0.0 0.00 0.00 0.00 35 1011.1
20260506171721 24 0.0 0.0 0.00 0.00 0.00 34 1011.2
20260506170921 25 0.0 0.0 0.00 0.00 0.00 33 1011.1
20260506170121 25 0.0 0.0 0.00 0.00 0.00 34 1011.0
20260506165321 27 0.0 0.0 0.00 0.00 0.00 30 1010.8
20260506164520 30 0.0 0.0 0.00 0.00 0.00 25 1010.7
20260506163720 38 0.0 0.0 0.00 0.00 0.00 16 1010.4
20260506162920 37 0.0 0.0 0.00 0.00 0.00 16 1010.4
20260506162120 36 0.0 0.0 0.00 0.00 0.00 18 1010.5
20260506161320 35 0.0 0.0 0.00 0.00 0.00 19 1010.6
20260506160521 32 0.0 0.0 0.00 0.00 0.00 21 1010.7
20260506155721 28 0.0 0.0 0.00 0.00 0.00 26 1010.9
20260506154920 22 0.0 0.0 0.00 0.00 0.00 36 1011.1
20260506154120 21 0.0 0.0 0.00 0.00 0.00 37 1011.2
20260506153320 21 0.0 0.0 0.00 0.00 0.00 38 1011.3
20260506152520 21 0.0 0.0 0.00 0.00 0.00 37 1011.2
20260506151720 21 0.0 0.0 0.00 0.00 0.00 38 1011.4
20260506150920 21 0.0 0.0 0.00 0.00 0.00 41 1011.4
20260506150120 21 0.0 0.0 0.00 0.00 0.00 40 1011.4
20260506145320 21 0.0 0.0 0.00 0.00 0.00 41 1011.5
20260506144521 21 0.0 0.0 0.00 0.00 0.00 41 1011.5
20260506143721 21 0.0 0.0 0.00 0.00 0.00 41 1011.5
20260506142920 20 0.0 0.0 0.00 0.00 0.00 42 1011.7
20260506142120 21 0.0 0.0 0.00 0.00 0.00 41 1011.6
20260506141320 20 0.0 0.0 0.00 0.00 0.00 40 1011.7
20260506140520 20 0.0 0.0 0.00 0.00 0.00 39 1011.8
20260506135721 20 0.0 0.0 0.00 0.00 0.00 38 1011.7
20260506134920 20 0.0 0.0 0.00 0.00 0.00 39 1011.9
20260506134121 20 0.0 0.0 0.00 0.00 0.00 40 1012.0
20260506133320 20 0.0 0.0 0.00 0.00 0.00 39 1012.1
20260506132520 20 0.0 0.0 0.00 0.00 0.00 39 1012.0
20260506131720 20 0.0 0.0 0.00 0.00 0.00 38 1012.1
20260506130921 21 0.0 0.0 0.00 0.00 0.00 39 1012.2
20260506130120 20 0.0 0.0 0.00 0.00 0.00 38 1012.1
20260506125320 20 0.0 0.0 0.00 0.00 0.00 37 1012.2
20260506124520 20 0.0 0.0 0.00 0.00 0.00 35 1012.2
20260506123720 20 0.0 0.0 0.00 0.00 0.00 35 1012.3
20260506122920 20 0.0 0.0 0.00 0.00 0.00 34 1012.3
20260506122120 20 0.0 0.0 0.00 0.00 0.00 34 1012.4
20260506121320 20 0.0 0.0 0.00 0.00 0.00 34 1012.5
20260506120520 20 0.0 0.0 0.00 0.00 0.00 33 1012.5
20260506115721 20 0.0 0.0 0.00 0.00 0.00 34 1012.5
20260506114920 20 0.0 0.0 0.00 0.00 0.00 35 1012.5
20260506114120 20 0.0 0.0 0.00 0.00 0.00 36 1012.5
20260506113320 20 0.0 0.0 0.00 0.00 0.00 36 1012.4
20260506112520 20 0.0 0.0 0.00 0.00 0.00 36 1012.5
20260506111722 20 0.0 0.0 0.00 0.00 0.00 36 1012.4
20260506110921 20 0.0 0.0 0.00 0.00 0.00 37 1012.7
20260506110121 20 0.0 0.0 0.00 0.00 0.00 37 1012.6
20260506105320 20 0.0 0.0 0.00 0.00 0.00 37 1012.7
20260506104520 20 0.0 0.0 0.00 0.00 0.00 36 1012.8
20260506103722 20 0.0 0.0 0.00 0.00 0.00 37 1012.8
20260506102920 20 0.0 0.0 0.00 0.00 0.00 36 1013.0
20260506102120 20 0.0 0.0 0.00 0.00 0.00 36 1012.9
20260506101320 20 0.0 0.0 0.00 0.00 0.00 36 1013.0
20260506100520 19 0.0 0.0 0.00 0.00 0.00 37 1013.0
20260506095720 19 0.0 0.0 0.00 0.00 0.00 37 1013.1
20260506094920 19 0.0 0.0 0.00 0.00 0.00 37 1013.2
20260506094120 19 0.0 0.0 0.00 0.00 0.00 37 1013.2
20260506093320 19 0.0 0.0 0.00 0.00 0.00 38 1013.3
20260506092520 18 0.0 0.0 0.00 0.00 0.00 38 1013.3
20260506091720 18 0.0 0.0 0.00 0.00 0.00 39 1013.2
20260506090920 18 0.0 0.0 0.00 0.00 0.00 38 1013.2
20260506090120 18 0.0 0.0 0.00 0.00 0.00 39 1013.2
20260506085321 18 0.0 0.0 0.00 0.00 0.00 38 1013.2
20260506084520 18 0.0 0.0 0.00 0.00 0.00 39 1013.3
20260506083720 18 0.0 0.0 0.00 0.00 0.00 40 1013.3
20260506082920 18 0.0 0.0 0.00 0.00 0.00 41 1013.1
20260506082120 18 0.0 0.0 0.00 0.00 0.00 42 1013.0
20260506081320 18 0.0 0.0 0.00 0.00 0.00 43 1013.1
20260505215720 18 0.0 0.0 0.00 0.00 0.00 47 1012.1
20260505214920 18 0.0 0.0 0.00 0.00 0.00 46 1012.1
20260505214120 18 0.0 0.0 0.00 0.00 0.00 46 1012.2
20260505213320 18 0.0 0.0 0.00 0.00 0.00 45 1012.1
20260505212520 18 0.0 0.0 0.00 0.00 0.00 45 1012.1
20260505211720 18 0.0 0.0 0.00 0.00 0.00 45 1011.9
20260505210920 19 0.0 0.0 0.00 0.00 0.00 46 1011.9
20260505210120 19 0.0 0.0 0.00 0.00 0.00 44 1011.6
20260505205320 19 0.0 0.0 0.00 0.00 0.00 44 1011.6